Weather History for Joplin, MO

Change the Weather History Date:

Sunday, January 13, 2013

  Actual Average Record
Temperature  
Mean Temperature 20 °F 35 °F  
Max Temperature 25 °F 44 °F 70 °F (1996)
Min Temperature 14 °F 25 °F -4 °F (1997)
Degree Days  
Heating Degree Days 45 30  
Month to date heating degree days 366 390  
Since 1 July heating degree days 1863 2007  
Cooling Degree Days 0 0  
Month to date cooling degree days 0 0  
Year to date cooling degree days 0 0  
Moisture  
Dew Point 16 °F    
Average Humidity 83    
Maximum Humidity 92    
Minimum Humidity 73    
Precipitation  
Precipitation T in 0.06 in 1.56 in (1995)
Month to date precipitation 0.86 0.88  
Year to date precipitation 0.86 0.88  
Sea Level Pressure  
Sea Level Pressure 30.22 in    
Wind  
Wind Speed 7 mph (NNW)    
Max Wind Speed 16 mph    
Max Gust Speed 21 mph    
Visibility 9 miles    
Events Snow    
T = Trace of Precipitation, MM = Missing Value Source: NWS Daily Summary

Daily Weather History Graph

Daily Weather History Graph

Search for Another Location

Airport:

Trip Planner

Search our weather history database for the weather conditions in past years. The results will help you decide how hot, cold, wet, or windy it might be!

Date:

Astronomy

Jan. 13, 2013 Rise Set
Actual Time 7:31 AM CST 5:22 PM CST
Civil Twilight 7:02 AM CST 5:51 PM CST
Nautical Twilight 6:30 AM CST 6:23 PM CST
Astronomical Twilight 5:59 AM CST 6:54 PM CST
Moon 8:34 AM CST (1/13) 7:57 PM CST (1/13)
Length of Visible Light 10h 48m
Length of Day
9h 51m
Waxing Crescent, 5% of the Moon is Illuminated
Jan 13
Waxing Crescent
Jan 18
First Quarter
Jan 26
Full
Feb 3
Last Quarter
Feb 10
New

Hourly Weather History & Observations

Time (CST) Temp. Windchill Dew Point Humidity Pressure Visibility Wind Dir Wind Speed Gust Speed Precip Events Conditions
12:23 AM 23.0 °F 10.6 °F 17.6 °F 80% 30.03 in 10.0 mi North 13.8 mph - N/A   Overcast
12:53 AM 24.1 °F 12.5 °F 19.0 °F 81% 30.11 in 10.0 mi NNW 12.7 mph - N/A   Overcast
1:46 AM 21.2 °F 8.9 °F 17.6 °F 86% 30.07 in 10.0 mi NNW 12.7 mph - N/A   Mostly Cloudy
1:53 AM 21.9 °F 12.5 °F 18.0 °F 85% 30.08 in 10.0 mi North 8.1 mph - N/A   Mostly Cloudy
2:18 AM 21.2 °F 11.7 °F 17.6 °F 86% 30.07 in 10.0 mi North 8.1 mph - N/A   Mostly Cloudy
2:53 AM 21.9 °F 13.4 °F 18.0 °F 85% 30.11 in 10.0 mi North 6.9 mph - N/A   Overcast
3:34 AM 21.2 °F 8.9 °F 15.8 °F 80% 30.08 in 10.0 mi North 12.7 mph - N/A   Overcast
3:53 AM 21.0 °F 9.3 °F 16.0 °F 81% 30.11 in 10.0 mi North 11.5 mph - N/A   Mostly Cloudy
4:01 AM 21.2 °F 10.9 °F 15.8 °F 80% 30.10 in 10.0 mi North 9.2 mph - N/A   Mostly Cloudy
4:53 AM 21.0 °F 10.6 °F 16.0 °F 81% 30.16 in 10.0 mi North 9.2 mph - N/A   Overcast
5:19 AM 19.4 °F 7.9 °F 15.8 °F 86% 30.12 in 1.8 mi North 10.4 mph - 0.00 in Snow Light Snow
5:46 AM 19.4 °F 7.9 °F 17.6 °F 93% 30.15 in 3.0 mi NNW 10.4 mph - 0.00 in Snow Light Snow
5:53 AM 19.9 °F 10.1 °F 17.1 °F 89% 30.20 in 4.0 mi NNW 8.1 mph - 0.00 in Snow Light Snow
5:55 AM 19.4 °F 8.6 °F 17.6 °F 93% 30.16 in 5.0 mi NNW 9.2 mph - 0.00 in Snow Light Snow
6:28 AM 19.4 °F 7.2 °F 15.8 °F 86% 30.14 in 10.0 mi North 11.5 mph - 0.00 in   Mostly Cloudy
6:53 AM 19.0 °F 6.8 °F 14.0 °F 81% 30.17 in 10.0 mi North 11.5 mph - 0.00 in   Mostly Cloudy
7:53 AM 17.1 °F 5.0 °F 12.0 °F 81% 30.21 in 10.0 mi North 10.4 mph - N/A   Clear
8:53 AM 17.1 °F 7.6 °F 12.0 °F 81% 30.26 in 10.0 mi North 6.9 mph - N/A   Clear
9:53 AM 19.0 °F 7.5 °F 12.9 °F 77% 30.30 in 10.0 mi North 10.4 mph - N/A   Clear
10:53 AM 19.9 °F 6.7 °F 15.1 °F 81% 30.29 in 10.0 mi NNW 13.8 mph - N/A   Clear
11:53 AM 21.0 °F 8.1 °F 16.0 °F 81% 30.27 in 10.0 mi NW 13.8 mph - N/A   Clear
12:22 PM 21.2 °F 7.8 °F 17.6 °F 86% 30.24 in 10.0 mi NNW 15.0 mph - N/A   Mostly Cloudy
12:53 PM 23.0 °F 11.1 °F 17.1 °F 78% 30.27 in 10.0 mi NW 12.7 mph - N/A   Scattered Clouds
1:53 PM 23.0 °F 12.4 °F 17.1 °F 78% 30.28 in 10.0 mi NW 10.4 mph - N/A   Clear
2:53 PM 24.8 °F 14.0 °F 17.6 °F 74% 30.26 in 10.0 mi NW 11.5 mph - N/A   Clear
3:53 PM 24.1 °F 15.2 °F 17.1 °F 75% 30.31 in 10.0 mi North 8.1 mph - N/A   Clear
4:53 PM 23.0 °F 14.7 °F 16.0 °F 74% 30.31 in 10.0 mi NNW 6.9 mph - N/A   Clear
5:53 PM 21.0 °F - 15.1 °F 78% 30.33 in 10.0 mi Calm Calm - N/A   Clear
6:53 PM 19.0 °F - 16.0 °F 88% 30.34 in 10.0 mi Calm Calm - N/A   Clear
7:53 PM 18.0 °F - 15.1 °F 88% 30.34 in 10.0 mi Calm Calm - N/A   Clear
8:53 PM 14.0 °F 6.5 °F 10.9 °F 88% 30.36 in 9.0 mi SSE 4.6 mph - N/A   Clear
9:53 PM 16.0 °F - 12.9 °F 88% 30.36 in 10.0 mi Calm Calm - N/A   Clear
10:53 PM 15.1 °F - 12.9 °F 91% 30.39 in 4.0 mi Calm Calm - N/A   Clear
11:53 PM 15.1 °F - 12.0 °F 88% 30.41 in 5.0 mi Calm Calm - N/A   Clear